| time (UTC) | temp C | wind direction | speed KPH | gust KPH | rain 1hr cm | rain 24hr cm | rain mn cm | humidity % | barometer mb |
| 20260504203620 | 21 | 279 | 11.3 | 0.0 | 0.00 | 0.00 | 20.98 | 94 | 1009.0 |
| 20260504200632 | 21 | 283 | 8.0 | 0.0 | 0.00 | 0.00 | 20.98 | 95 | 1010.0 |
| 20260504193645 | 21 | 283 | 8.0 | 0.0 | 0.00 | 0.00 | 20.98 | 95 | 1010.0 |
| 20260504190658 | 21 | 277 | 8.0 | 0.0 | 0.00 | 0.00 | 20.98 | 94 | 1010.0 |
| 20260504183710 | 21 | 277 | 8.0 | 0.0 | 0.00 | 0.00 | 20.98 | 94 | 1010.0 |
| 20260504180723 | 22 | 263 | 9.7 | 0.0 | 0.00 | 0.00 | 20.98 | 90 | 1010.0 |
| 20260504170748 | 23 | 259 | 12.9 | 0.0 | 0.00 | 0.00 | 20.98 | 82 | 1010.0 |
| 20260504150839 | 26 | 263 | 16.1 | 0.0 | 0.00 | 0.00 | 20.98 | 61 | 1009.0 |
| 20260504081132 | 36 | 279 | 19.3 | 0.0 | 0.00 | 0.00 | 20.98 | 16 | 1007.0 |
| 20260504044304 | 33 | 295 | 16.1 | 0.0 | 0.00 | 0.00 | 20.98 | 25 | 1010.0 |
| 20260504041317 | 30 | 290 | 14.5 | 0.0 | 0.00 | 0.00 | 20.98 | 36 | 1011.0 |
| 20260504034328 | 30 | 290 | 14.5 | 0.0 | 0.00 | 0.00 | 20.98 | 35 | 1011.0 |
| 20260504031342 | 26 | 279 | 9.7 | 0.0 | 0.00 | 0.00 | 20.98 | 56 | 1011.0 |
| 20260504024354 | 26 | 279 | 9.7 | 0.0 | 0.00 | 0.00 | 20.98 | 55 | 1011.0 |
| 20260504021407 | 23 | 268 | 8.0 | 0.0 | 0.00 | 0.00 | 20.98 | 80 | 1010.0 |
| 20260504014419 | 23 | 268 | 8.0 | 0.0 | 0.00 | 0.00 | 20.98 | 80 | 1010.0 |
| 20260504011431 | 21 | 261 | 8.0 | 0.0 | 0.00 | 0.00 | 20.98 | 95 | 1010.0 |
| 20260504004444 | 21 | 261 | 8.0 | 0.0 | 0.00 | 0.00 | 20.98 | 95 | 1009.0 |
| 20260504001457 | 21 | 255 | 8.0 | 0.0 | 0.00 | 0.00 | 20.98 | 96 | 1009.0 |
| 20260503234509 | 21 | 250 | 8.0 | 0.0 | 0.00 | 0.00 | 20.98 | 96 | 1009.0 |
| 20260503231521 | 21 | 251 | 8.0 | 0.0 | 0.00 | 0.00 | 20.98 | 94 | 1008.0 |
| 20260503224534 | 21 | 251 | 8.0 | 0.0 | 0.00 | 0.00 | 20.98 | 94 | 1008.0 |
| 20260503221546 | 21 | 252 | 8.0 | 0.0 | 0.00 | 0.00 | 20.98 | 93 | 1008.0 |
| 20260503214559 | 21 | 252 | 8.0 | 0.0 | 0.00 | 0.00 | 20.98 | 93 | 1008.0 |
| 20260503211612 | 21 | 259 | 9.7 | 0.0 | 0.00 | 0.00 | 20.98 | 92 | 1008.0 |